sat.trackr.live / text

‹ back to catalog

STARLINK-5145

NORAD 54008 · 2022-125AW

PAYLOAD ACTIVE UNKNOWN

§ Identity

Operator
Country
US
Launch date
2022-10-05
Launch site
AFWTR
Launch vehicle
Mass (kg)
RCS (m²)

Purposes: comms

External: N2YO · Heavens-Above · Gunter

§ Orbital elements

Epoch: 2026-09-20T16:09:45.210816Z

Period
93.85 min
Inclination
53.1616°
Eccentricity
0.0000775
Mean motion
15.34385007 rev/d
Perigee alt
462.2 km
Apogee alt
463.3 km
Semi-major
6,840.9 km
B*
2.8697e-5
RAAN
36.5942°
Arg perigee
69.6162°
Mean anomaly
290.4923°
Rev number
21,920

§ Raw data

STARLINK-51451 54008U 22125AW  26263.67343994  .00000593  00000+0  28697-4 0  99952 54008  53.1616  36.5942 0000775  69.6162 290.4923 15.34385007219208

JSON: /api/v1/satellites/54008 · /tle

For live sub-satellite position, see the globe view (requires WebGL).

§ Visibility from observer

Set your observer location to see the next 7 days of passes ≥ 10°. The values pass through the URL so the page stays shareable.

No JS? Fill the form by hand. The geolocation button needs JavaScript.